Other Public Products
Issued by NWS Charleston, SC

Current Version | Previous Version | Graphics & Text | Print | Product List | Glossary On
Versions: 1 2 3 4 5 6 7 8 9 10 11 12 13 14 15 16 17 18 19 20 21 22 23 24 25 26 27 28 29 30 31 32 33 34 35 36 37 38 39 40 41 42 43 44 45 46 47 48 49 50
000
FPUS82 KCHS 191127
OPUCHS

TEST...KCHS/KSAV Gateway Observations...TEST
National Weather Service Charleston SC
600 AM EST SUN FEB 19 2017

NOTE: "fair" indicates few or no clouds below 12,000 feet with no
significant weather and/or obstructions to visibility.

SCZ050-WAZ558-NCZ071-TXZ119-213-PAZ071-DCZ001-FLZ074-172-MI076-
NYZ176-178-MAZ016-IL014-TNZ027-NJZ106-GAZ044-MD014-191200-
...Gateway Observations for Charleston International...

CITY           SKY/WX    TMP DP  RH WIND       PRES   REMARKS
Chas Airport   MOCLDY    48  45  89 CALM      29.97R
Seattle        CLOUDY    44  42  93 CALM      29.43S
Charlotte      CLEAR     43  41  93 W3        29.95R
Dallas DFW     CLOUDY    60  57  89 E8        29.84S
Dallas Love    MOCLDY    61  57  87 SE6       29.86S
Philladelphia  CLOUDY    58  33  39 W9        29.79R
Wash National  CLOUDY    59  47  64 NW7       29.85R
Baltimore      CLOUDY    58  40  51 W9        29.81R
Miami          MOCLDY    69  69 100 CALM      30.02R
Detroit        CLOUDY    40  34  79 W5        29.89R WCI  37
Newark         MOCLDY    47  33  58 SW3       29.74R
Laguardia      MOCLDY    57  34  41 W13       29.73R
J F K          MOCLDY    49  36  61 SW10      29.75R
Boston Logan   CLOUDY    41  33  73 SW10      29.66R
Ft. Lauderdale MOCLDY    72  71  97 W3        30.01R
Chicago O`Hare CLEAR     37  33  85 SW5       29.94R WCI  33
Chicago Midway PTCLDY    41  34  76 CALM      29.94R
Houston Bush   CLOUDY    69  68  96 SE13      29.88R FOG
Houston Hobby  CLOUDY    69  67  93 E6        29.87R FOG
Nashville      PTCLDY    47  45  93 CALM      30.04R FOG
Atlanta        MOCLDY    54  52  93 NW6       30.02R

$$

GAZ044-118-TXZ119-213-NCZ071-DCZ001-MDZ014-506-PAZ021-071-NJZ106-
NYZ176-178-MAZ106-OHZ011-021-055-MIZ076-KYZ091-ILZ014-INZ047-
MNZ060-191200-
...Gateway Observations for Savannah International...

CITY           SKY/WX    TMP DP  RH WIND       PRES   REMARKS
Savannah Arpt  PTCLDY    50  45  83 W3        30.00R
Atlanta        MOCLDY    54  52  93 NW6       30.02R
Charlotte      CLEAR     43  41  93 W3        29.95R
Dallas DFW     CLOUDY    60  57  89 E8        29.84S
Houston Bush   CLOUDY    69  68  96 SE13      29.88R FOG
Wash National  CLOUDY    59  47  64 NW7       29.85R
Wash Dulles    CLOUDY    56  46  69 NW5       29.85R
Baltimore      CLOUDY    58  40  51 W9        29.81R
Philadelphia   CLOUDY    58  33  39 W9        29.79R
Newark         MOCLDY    47  33  58 SW3       29.74R
Laguardia      MOCLDY    57  34  41 W13       29.73R
J F K          MOCLDY    49  36  61 SW10      29.75R
Boston         CLOUDY    41  33  73 SW10      29.66R
Pittsburg      CLEAR     46  43  89 W7        29.90R
Akron          CLEAR     40  36  86 CALM      29.91R FOG
Cleveland      CLEAR     45  39  79 SW8       29.92R
Cincinnati     CLOUDY    48  46  93 W9        30.01R
Columbus       CLEAR     42  42 100 S6        29.97R FOG
Detroit        CLOUDY    40  34  79 W5        29.89R WCI  37
Chicago O`Hare CLEAR     37  33  85 SW5       29.94R WCI  33
Minneapolis    CLOUDY    33  30  88 E5        29.91S WCI  29
Indianapolis   CLOUDY    48  46  93 SW7       29.98S

$$




USA.gov is the U.S. government's official web portal to all federal, state and local government web resources and services.